Location: NJAA Observatory
(40.6819°N, 74.8979°W)
Time: 12:40:08
(UTC-04:00)

Transit 2A Rocket - Visible Passes

Search period start: 25 August 2016 00:00
Search period end: 04 September 2016 00:00
Orbit: 584 x 920 km, 66.7° (Epoch: 25 August)

Date Brightness Start Highest point End Pass type
(mag) Time Alt. Az. Time Alt. Az. Time Alt. Az.
25 Aug 7.9 00:42:56 10° WNW 00:46:16 15° NW 00:49:36 10° N visible
25 Aug 7.0 20:39:01 12° E 20:39:01 12° E 20:40:37 10° ENE visible
25 Aug 5.2 22:18:44 59° SSW 22:19:59 82° ESE 22:26:10 10° NNE visible
25 Aug 7.5 23:58:52 10° W 00:03:24 21° NW 00:07:58 10° N visible
26 Aug 8.1 05:18:09 10° N 05:20:47 13° NE 05:23:22 10° ENE visible
26 Aug 5.4 21:32:01 10° S 21:37:45 51° ESE 21:43:40 10° NE visible
26 Aug 7.0 23:15:22 10° WSW 23:20:40 31° NW 23:26:04 10° NNE visible
27 Aug 6.0 20:50:30 10° SSE 20:55:37 31° ESE 21:00:55 10° NE visible
27 Aug 6.3 22:32:18 10° SW 22:38:05 47° NW 22:44:00 10° NNE visible
28 Aug 8.2 00:20:19 10° NW 00:22:19 12° NNW 00:24:20 10° NNW visible
28 Aug 7.6 05:34:55 10° N 05:39:36 25° NE 05:43:57 10° E visible
28 Aug 6.6 20:09:41 10° SE 20:13:37 18° ESE 20:17:39 10° ENE visible
28 Aug 5.5 21:49:37 10° SW 21:55:37 73° WNW 22:01:48 10° NNE visible
28 Aug 7.9 23:35:36 10° WNW 23:39:22 17° NW 23:43:09 10° N visible
29 Aug 8.0 04:53:10 10° N 04:56:48 17° NE 05:00:15 10° ENE visible
29 Aug 5.2 21:07:20 10° SSW 21:13:17 71° ESE 21:19:25 10° NNE visible
29 Aug 7.5 22:51:43 10° W 22:56:33 24° NW 23:01:25 10° N visible
30 Aug 8.3 04:11:59 10° NNE 04:13:52 11° NNE 04:15:42 10° NE visible
30 Aug 6.1 05:52:25 10° NNW 05:58:01 51° NE 06:03:05 10° SE visible
30 Aug 5.6 20:25:29 10° S 20:31:05 43° ESE 20:36:52 10° NE visible
30 Aug 6.9 22:08:22 10° WSW 22:13:52 35° NW 22:19:27 10° NNE visible
31 Aug 7.0 05:10:19 10° NNW 05:15:26 32° NE 05:20:09 10° ESE visible
31 Aug 6.1 21:25:25 10° SW 21:31:19 54° NW 21:37:20 10° NNE visible
31 Aug 8.3 23:12:42 10° WNW 23:15:23 13° NW 23:18:05 10° N visible
01 Sep 7.7 04:28:23 10° N 04:32:44 21° NE 04:36:48 10° E visible
01 Sep 5.4 20:42:51 10° SSW 20:48:53 84° WNW 20:55:05 10° NNE visible
01 Sep 7.9 22:28:19 10° W 22:32:29 19° NW 22:36:39 10° N visible
02 Sep 8.1 03:46:45 10° N 03:49:53 15° NE 03:52:54 10° ENE visible
02 Sep 5.4 05:27:59 10° NNW 05:33:40 73° ENE 05:38:47 10° SE visible
02 Sep 5.4 20:00:42 10° SSW 20:06:36 61° ESE 20:12:40 10° NE visible
02 Sep 7.4 21:44:37 10° WSW 21:49:43 27° NW 21:54:50 10° N visible
03 Sep 8.4 03:06:36 10° NNE 03:06:54 10° NNE 03:07:12 10° NNE visible
03 Sep 6.3 04:45:47 10° NNW 04:51:13 44° NE 04:56:09 10° SE visible
03 Sep 6.8 21:01:24 10° WSW 21:07:04 40° NW 21:12:49 10° NNE visible
03 Sep 8.5 22:51:17 10° NNW 22:51:28 10° NNW 22:51:40 10° NNW visible
